Theta_e
327 328 329 331 331 332 332 333 334 334 335 336 337 338 339 341 342 343 344 344 345 344 345 346 347 348 348 349 349 350 350 350 350 349 348 348 348 348 348 348 349 349 351 351 352 354 356 357 357 357 357 357 356 354 352 351 350 348 345 344 343 343 342
324 326 328 330 330 331 332 333 334 334 335 336 337 338 339 340 341 342 343 344 344 345 345 346 347 348 348 349 349 349 349 350 350 350 350 349 349 349 349 349 349 349 350 352 353 355 356 356 357 356 356 356 356 354 351 350 348 347 344 343 341 341 341
322 325 327 328 329 330 332 333 333 334 335 336 337 337 338 339 341 342 343 343 344 345 345 346 347 347 348 349 349 349 349 350 350 349 349 348 348 348 349 350 350 350 350 352 354 354 356 356 356 356 356 355 355 353 350 349 347 346 345 343 342 341 340
320 322 325 327 329 331 332 333 333 334 335 335 336 337 338 340 341 342 343 344 343 344 344 345 346 347 348 348 348 348 349 349 350 349 349 349 349 349 349 349 350 351 351 351 353 355 356 356 355 355 356 354 354 353 351 348 347 346 345 343 341 341 340
317 320 323 325 326 328 330 332 333 334 334 335 336 339 339 340 341 342 343 344 344 344 345 345 346 347 349 349 349 349 349 349 349 350 350 350 350 350 349 349 349 350 351 352 354 355 355 354 354 354 354 354 353 352 350 349 347 346 344 343 341 340 340
316 317 320 322 324 326 329 331 332 333 334 334 335 337 338 339 340 340 342 343 344 345 345 346 346 348 348 349 349 349 350 350 350 350 350 350 350 349 349 349 350 350 350 351 353 354 354 354 353 353 353 353 352 351 350 349 348 346 344 342 341 340 339
318 318 318 321 323 325 327 329 331 333 334 335 336 337 338 339 339 340 341 342 344 344 344 344 345 346 348 349 349 350 349 349 349 350 350 350 350 350 350 350 351 351 351 352 352 353 353 353 353 352 352 352 351 350 348 348 347 347 345 342 341 340 339
319 319 319 320 322 324 325 327 330 332 334 335 335 335 336 338 339 340 340 342 343 344 344 344 345 346 347 349 349 349 349 349 350 350 350 350 350 350 350 351 351 351 352 351 352 353 352 352 352 352 351 351 350 350 348 347 347 346 345 342 341 340 339
320 321 321 320 321 323 324 326 328 330 332 333 334 335 336 338 339 339 340 341 343 343 344 345 345 346 348 348 349 349 350 350 350 350 350 350 350 349 350 351 351 352 351 351 351 352 352 352 352 351 351 350 350 349 348 347 346 346 344 343 341 340 339
320 321 322 322 322 322 324 325 327 328 329 331 333 334 335 337 338 340 340 341 342 343 344 345 346 346 347 348 348 349 350 350 350 350 350 349 350 350 350 351 351 352 352 352 351 351 352 352 351 351 350 349 349 349 348 347 346 345 344 343 342 341 340
319 321 322 322 322 322 324 324 325 326 328 330 332 333 335 336 337 339 340 341 342 343 344 345 347 346 347 347 347 348 349 349 350 350 350 350 350 350 351 351 351 352 352 352 351 351 351 351 351 350 349 348 348 348 347 347 346 345 344 343 343 342 341
318 320 321 322 323 323 323 324 325 326 327 329 331 332 334 336 337 338 340 341 342 343 344 345 347 347 347 347 347 348 348 348 349 349 350 350 350 351 351 352 352 352 352 352 351 351 351 351 350 350 349 348 348 348 348 347 347 346 344 343 342 342 341
317 320 321 321 323 324 324 325 325 326 327 328 329 331 334 335 336 338 339 341 342 343 344 345 346 347 347 347 347 348 348 348 349 349 350 351 351 352 352 352 352 352 352 352 352 351 350 350 350 350 350 349 349 348 348 347 347 346 346 344 343 342 341
325 319 320 322 324 324 324 324 325 326 327 327 328 330 333 335 336 337 339 340 342 343 344 345 346 347 347 347 347 348 348 349 350 350 350 351 352 352 352 352 353 353 353 353 352 351 351 350 350 350 350 349 349 348 348 347 346 346 346 345 344 342 341
313 316 318 319 322 324 325 324 325 326 327 328 328 329 331 333 335 337 339 341 342 343 344 345 346 346 347 347 347 348 349 350 351 351 351 351 352 352 352 352 353 353 353 353 352 352 352 351 351 350 349 349 349 348 348 347 346 346 346 345 344 343 341
311 313 315 318 321 322 325 326 326 327 328 328 329 329 330 332 334 336 338 339 341 342 344 345 346 346 347 347 347 349 350 351 351 351 352 351 351 351 352 352 352 352 352 352 352 352 352 352 351 350 349 348 348 348 347 347 347 339 329 333 344 343 342
311 312 314 317 320 321 324 326 327 327 328 329 329 330 330 332 334 336 338 339 341 342 344 345 345 346 346 347 348 349 350 350 351 351 351 351 352 352 352 352 352 352 352 352 352 352 352 352 350 350 350 349 348 347 347 347 346 330 327 328 332 341 343
312 313 313 315 318 321 322 324 326 327 327 328 330 331 331 332 334 336 337 339 340 342 344 345 345 346 347 347 349 349 350 350 351 351 351 352 351 352 352 352 352 352 352 352 351 352 352 351 350 350 350 350 349 348 347 347 334 327 326 327 327 331 343
313 314 315 316 317 321 322 323 325 327 328 329 330 331 332 333 334 335 337 339 341 343 343 344 345 346 347 348 349 349 350 350 350 350 351 351 352 352 352 352 352 351 351 351 352 352 351 351 351 350 351 350 349 348 348 348 333 326 325 326 326 327 334
315 315 316 316 317 318 322 324 325 327 328 330 331 332 334 335 335 336 339 340 342 342 343 344 345 346 346 348 348 349 350 350 350 350 351 352 352 352 352 352 351 352 352 352 352 351 351 351 351 351 350 350 350 349 349 349 333 325 323 323 323 325 330
317 319 321 322 321 319 321 324 326 327 328 329 331 333 335 335 336 338 339 341 341 343 343 344 345 345 346 347 348 349 350 350 350 350 351 351 352 352 352 352 352 352 352 352 351 351 350 350 350 350 350 350 350 350 349 350 330 322 321 320 321 323 326
329 330 325 321 322 322 323 324 326 327 328 332 333 333 334 335 337 338 338 341 341 342 343 344 345 345 346 347 348 349 350 350 350 350 350 351 351 351 351 351 352 351 352 352 352 352 352 352 351 350 350 351 350 349 349 350 326 321 320 319 320 322 333
332 332 331 329 324 322 325 326 327 328 332 334 333 333 334 336 338 339 339 340 341 342 343 344 344 345 346 347 348 349 350 350 350 350 350 351 351 351 351 351 351 352 353 352 352 351 351 351 351 351 351 350 350 349 349 350 330 319 318 318 318 321 336
333 334 334 334 334 335 335 332 329 331 330 332 333 334 336 336 339 340 340 340 341 341 342 343 343 345 346 347 348 349 350 351 351 351 351 351 350 350 351 352 352 352 353 351 351 350 351 351 351 351 351 350 350 349 349 349 333 317 317 317 316 323 337
331 332 333 334 335 335 336 336 335 330 333 332 332 335 337 337 338 339 339 340 340 341 341 342 343 345 345 347 348 350 351 351 351 351 351 351 351 351 351 351 352 353 353 353 352 352 352 351 351 351 351 351 350 337 345 350 335 315 317 316 315 325 339
330 331 333 335 337 337 337 338 335 332 331 331 333 336 338 337 338 339 339 340 341 340 341 342 343 345 347 348 349 350 351 352 352 352 351 351 351 352 352 352 352 352 352 353 353 352 352 350 350 349 350 350 350 349 347 349 347 326 316 315 314 319 339
331 332 332 334 335 338 337 339 338 336 336 338 337 336 337 338 337 337 339 340 340 340 341 343 345 346 347 348 349 350 351 351 352 352 352 352 352 353 352 353 352 353 352 352 352 352 351 350 349 349 349 350 350 350 349 349 348 333 314 313 313 315 326
332 333 334 335 337 336 337 338 338 338 339 340 341 340 338 338 338 338 340 339 339 341 343 345 347 346 346 347 348 349 351 351 352 352 352 353 353 352 352 353 353 353 353 352 351 350 350 350 348 348 348 349 349 349 349 345 337 338 314 314 312 313 320
331 331 331 332 333 334 335 335 335 336 336 338 339 339 341 341 338 338 339 340 341 343 345 345 346 346 346 346 347 348 349 351 351 351 353 352 352 351 351 352 352 352 352 352 351 350 349 348 348 347 347 346 347 348 348 348 342 326 323 313 311 310 316
332 332 333 333 333 333 334 333 334 335 336 337 338 338 337 340 341 340 338 339 345 346 345 345 345 346 345 344 345 347 348 349 350 351 352 352 352 352 351 351 351 351 351 351 350 349 348 348 347 347 345 343 342 342 343 343 343 325 320 318 311 310 313
331 332 331 331 331 332 334 333 333 334 335 336 338 338 338 338 339 340 340 340 343 345 345 345 344 344 344 344 344 345 347 348 349 350 352 353 352 351 351 351 350 349 350 350 350 349 348 347 347 346 344 342 339 336 335 336 337 332 323 316 312 312 312
331 332 332 331 331 332 333 334 334 334 334 335 336 337 338 338 337 337 336 339 342 347 348 346 344 343 344 344 344 344 346 346 347 349 350 351 352 352 352 351 350 349 349 348 348 348 347 346 345 344 342 340 339 334 333 332 332 330 325 320 315 314 314
331 331 331 330 332 333 333 333 333 333 333 333 335 337 338 338 339 338 338 339 343 346 349 348 346 344 343 343 344 344 344 345 345 347 348 350 351 352 352 352 351 350 348 349 349 348 347 345 343 342 341 339 338 337 332 329 328 325 322 320 320 322 321
330 332 333 333 333 334 333 333 333 333 333 334 336 337 338 338 338 338 338 340 342 344 346 347 347 346 344 343 343 343 343 343 344 345 347 348 350 350 350 351 351 350 348 348 348 347 346 345 342 342 341 339 339 334 326 325 324 322 321 321 324 325 327
330 331 332 333 333 333 333 333 333 334 334 334 336 337 337 337 337 338 338 338 339 340 341 341 340 343 345 345 344 342 341 342 343 344 345 347 348 350 351 350 350 350 350 351 352 350 348 345 344 343 343 341 337 328 324 324 323 323 317 325 319 325 329
329 330 331 333 334 334 334 334 334 334 334 334 336 336 336 336 336 337 337 337 338 338 338 338 339 340 341 341 342 343 344 343 343 343 343 345 346 347 348 337 325 339 351 349 339 335 331 330 343 340 335 331 330 330 327 324 327 315 310 308 309 311 315
327 328 329 330 331 332 332 333 335 334 334 335 336 336 337 336 336 336 336 337 337 337 336 337 338 338 337 337 338 336 338 340 341 342 343 344 346 347 345 341 332 311 312 325 331 322 314 316 317 319 325 332 331 328 323 320 313 307 306 305 305 306 305
325 326 327 329 329 330 330 331 331 332 332 334 335 336 336 336 337 336 337 337 337 336 335 334 334 333 333 334 334 334 334 334 334 334 335 336 339 340 339 333 331 328 310 310 315 312 311 311 311 312 315 318 323 324 323 310 304 302 303 303 303 303 302
Wind_Speed
19 18 18 17 17 18 19 19 19 18 18 17 17 18 18 16 16 15 15 16 18 18 17 18 18 16 18 17 17 15 15 14 12 13 12 12 11 10 11 10 10 10 9 9 9 9 8 8 10 10 8 9 8 9 9 8 8 6 7 7 6 6 6
13 17 18 18 18 19 19 19 18 17 16 17 17 18 16 17 16 16 17 17 19 20 18 18 18 17 18 17 15 16 16 15 14 12 11 10 10 10 11 11 11 11 10 9 8 7 7 9 10 9 9 9 9 9 9 8 8 8 7 7 7 6 5
15 17 18 17 19 19 20 18 17 17 17 17 17 16 17 18 18 19 18 17 18 18 16 17 18 18 16 16 16 16 16 15 14 14 13 13 14 13 11 10 10 10 10 9 8 7 7 7 9 9 10 9 9 9 9 8 7 8 8 7 7 7 6
15 17 19 22 22 20 20 19 20 19 18 19 19 20 20 20 19 18 17 18 19 18 19 18 18 18 16 16 16 15 16 15 15 14 14 13 13 12 10 10 10 9 8 9 9 8 7 7 8 9 10 9 9 9 9 8 7 8 8 7 6 7 6
14 16 15 15 16 16 17 17 19 19 19 20 20 20 20 20 19 16 16 17 18 20 21 21 18 17 15 16 14 14 16 16 15 14 13 12 12 11 11 12 11 11 11 9 8 8 9 9 8 8 10 9 10 10 8 7 8 8 7 7 7 6 6
15 16 15 17 17 18 19 20 21 21 21 20 19 18 18 18 16 18 18 18 17 17 16 15 16 15 16 16 15 14 13 14 14 13 13 12 12 12 13 13 12 12 11 10 9 9 10 9 9 9 10 10 11 11 9 7 8 7 8 7 7 7 7
16 16 15 16 17 18 20 20 20 20 20 19 18 18 17 16 18 20 18 18 18 19 18 18 18 17 16 14 14 14 15 14 14 15 13 13 13 13 13 12 11 11 10 8 10 9 10 11 11 11 10 10 10 12 10 10 9 8 7 7 8 8 8
15 15 16 17 19 19 18 18 18 18 18 16 15 15 16 16 16 17 17 18 18 18 17 19 18 17 16 14 14 16 16 15 14 14 13 15 14 14 13 12 12 11 9 11 10 11 10 12 10 9 10 9 10 11 11 11 10 8 7 8 9 8 6
17 17 16 17 18 16 16 17 18 18 19 18 18 18 18 17 17 18 19 19 18 18 20 20 19 17 15 15 15 17 15 14 14 14 15 16 14 14 14 12 11 10 11 11 10 10 11 11 11 11 11 11 11 11 11 11 10 9 9 10 11 10 8
14 11 11 10 8 10 12 14 14 12 13 15 15 14 16 16 17 17 18 18 18 20 22 19 17 16 15 15 16 16 15 15 14 15 15 15 15 16 14 12 11 10 11 11 9 11 10 10 11 11 11 12 12 12 12 11 10 10 10 12 11 11 11
10 10 9 6 8 11 11 11 12 14 15 15 16 16 16 17 17 17 18 17 19 20 20 18 16 15 16 17 17 16 16 17 16 16 17 16 13 13 13 12 11 10 11 10 10 11 10 10 10 11 11 12 13 13 12 12 12 12 10 11 10 11 11
9 8 9 10 9 8 12 15 15 13 13 14 15 16 16 17 17 18 18 19 20 20 17 17 16 17 16 16 17 17 18 17 17 17 17 17 15 15 13 13 13 12 9 11 11 11 10 11 11 11 13 13 14 13 13 12 12 13 13 11 11 11 10
9 10 12 13 13 14 12 10 13 15 15 16 17 16 16 17 18 17 17 18 19 17 17 17 16 17 17 17 18 17 18 18 18 16 16 16 15 14 14 14 12 11 11 11 11 11 10 11 12 12 13 14 13 13 13 13 13 13 12 12 12 12 11
4 5 6 5 5 8 12 15 15 15 15 15 16 16 16 16 17 18 18 18 17 17 16 14 16 16 17 16 17 17 18 18 17 16 15 15 14 14 15 14 14 14 12 12 13 13 12 11 13 13 13 13 13 13 12 12 12 12 12 12 12 11 11
7 9 9 9 11 12 13 13 14 16 16 16 16 16 17 16 15 14 14 14 15 16 18 17 17 17 18 17 18 18 18 16 14 14 14 14 14 15 15 15 14 13 13 13 13 12 14 14 12 14 14 13 13 13 12 12 12 11 12 12 12 11 12
7 6 6 9 11 12 13 15 15 16 16 15 16 16 16 15 15 16 17 17 17 17 18 15 17 17 17 18 19 18 16 15 14 14 14 15 15 15 15 14 14 13 14 14 14 14 13 14 15 14 14 14 13 13 12 12 11 14 19 16 13 12 11
8 9 11 11 11 11 12 13 13 13 13 15 16 18 17 17 17 17 18 17 17 18 17 17 17 17 18 19 19 17 15 14 15 14 15 16 14 14 15 15 13 14 14 14 15 16 15 15 15 15 13 14 13 13 12 12 12 18 18 19 19 13 11
9 10 10 11 12 11 11 13 12 13 16 17 18 19 17 16 16 15 17 16 17 17 16 16 17 18 19 19 16 15 16 15 15 15 15 15 15 15 14 14 14 15 15 15 16 15 14 16 17 15 14 13 13 13 13 13 15 18 19 20 20 17 13
9 9 9 6 7 10 13 15 15 15 17 16 16 16 18 18 16 17 18 18 19 15 15 17 18 18 18 16 15 15 15 14 15 16 15 15 15 14 14 15 15 16 16 17 16 15 16 17 15 15 14 14 15 15 14 12 16 18 20 20 20 21 16
9 9 9 8 7 9 11 10 10 12 14 15 16 18 18 16 18 19 18 18 14 15 17 17 17 17 18 16 16 16 16 15 16 16 16 14 14 14 15 15 17 16 16 15 15 15 15 15 16 15 14 15 15 14 13 14 15 19 20 20 21 21 18
7 7 9 9 7 8 8 10 10 9 9 10 13 12 10 11 12 10 8 9 13 16 16 18 18 17 17 16 16 15 14 16 16 16 15 15 15 15 16 16 15 16 15 14 15 15 15 15 15 15 15 15 14 12 13 14 17 19 20 20 21 21 18
7 8 10 8 8 8 8 9 11 12 13 8 6 8 11 14 13 12 14 14 15 15 15 15 15 16 14 14 14 16 16 16 16 15 14 15 15 15 16 16 17 17 15 13 13 13 12 12 13 14 14 14 13 13 15 14 17 19 20 21 21 21 13
6 8 8 9 8 9 8 7 8 8 5 4 7 8 10 8 9 12 11 13 14 14 14 13 14 14 15 15 16 16 16 16 15 14 14 14 15 16 16 16 16 15 13 14 14 13 13 13 13 12 13 14 14 15 15 12 15 20 21 21 22 15 10
5 5 7 8 6 5 6 5 5 6 8 7 8 9 8 8 10 10 10 11 10 11 12 14 16 16 15 15 15 15 14 13 14 16 16 16 18 19 17 16 14 15 14 15 14 14 14 13 12 12 12 14 16 16 15 13 14 20 20 21 20 17 12
5 5 6 6 6 7 7 6 5 4 5 7 10 8 9 9 11 12 13 12 14 15 16 17 17 16 16 16 15 14 14 15 15 16 17 18 18 17 17 17 17 14 12 13 13 14 12 12 11 11 12 14 16 16 17 13 12 19 19 20 20 18 11
4 6 6 7 7 5 4 5 1 4 4 6 6 7 8 9 10 11 11 12 12 14 16 17 17 16 16 13 12 12 14 14 17 17 17 18 17 15 16 14 12 13 14 13 12 12 11 11 12 14 13 13 13 12 14 14 11 15 21 21 21 22 13
3 4 6 9 9 8 8 8 8 8 7 4 1 6 7 9 10 10 10 10 11 15 17 16 13 11 11 11 13 15 17 15 16 18 18 18 18 17 15 14 15 14 13 13 11 11 11 13 13 13 13 12 12 13 13 13 13 13 21 21 22 22 18
3 3 5 4 7 9 7 8 11 11 11 10 9 1 6 9 9 8 6 8 13 16 13 5 5 7 8 9 11 12 13 14 15 17 16 16 13 14 15 15 13 13 13 12 12 14 14 13 13 13 12 12 13 13 13 14 18 11 18 22 22 22 22
9 10 10 10 12 12 9 10 11 11 10 10 9 8 5 3 8 8 9 10 14 10 5 6 7 8 8 9 11 12 14 14 16 14 12 12 14 15 15 13 15 15 14 14 13 14 14 14 13 13 12 11 11 11 12 12 13 18 16 21 22 23 22
8 8 9 10 10 10 11 10 10 10 11 10 11 10 9 7 1 4 8 10 3 2 5 7 7 7 8 9 11 12 12 13 14 13 12 13 14 15 15 14 15 16 15 16 15 14 14 13 12 12 12 13 11 10 9 9 9 12 19 18 22 22 24
9 10 10 10 10 10 10 10 10 10 11 12 12 11 11 9 7 5 2 5 6 2 4 7 7 9 10 11 11 11 11 10 11 13 13 13 14 14 14 15 14 13 14 15 16 16 17 16 15 15 13 13 13 10 7 8 9 7 13 20 20 21 22
9 8 8 9 11 11 9 9 10 10 10 11 12 10 9 10 9 8 6 7 6 4 3 4 7 8 10 10 10 12 11 12 13 13 14 14 13 15 15 16 15 15 13 12 14 16 17 17 16 15 14 14 13 10 10 10 9 8 8 10 16 15 18
12 13 13 14 12 10 10 10 11 13 12 13 11 9 9 9 7 5 3 4 5 5 4 2 4 6 7 9 9 9 10 13 12 12 13 14 13 13 13 13 13 14 14 14 14 12 12 12 14 15 16 15 13 12 12 10 8 8 7 8 8 8 9
10 11 11 10 10 11 10 13 13 12 12 11 10 9 9 8 8 7 8 6 5 4 3 3 1 5 6 7 7 8 10 11 14 15 12 13 13 13 13 12 13 14 15 15 16 15 14 13 14 15 16 15 13 13 12 10 9 9 10 11 11 11 10
8 9 9 9 9 9 10 10 11 12 12 10 8 9 8 9 8 8 8 7 7 6 5 5 4 2 3 4 5 7 6 8 10 11 12 12 12 13 14 15 14 15 15 16 15 17 17 17 16 12 6 5 9 11 10 10 12 12 12 15 16 17 14
8 8 8 7 7 8 9 9 8 10 9 8 8 8 8 9 8 8 8 7 7 6 6 5 4 4 4 4 4 4 4 4 5 6 7 9 10 12 11 9 9 14 17 17 20 24 24 20 17 16 15 13 9 10 14 15 13 15 13 15 19 19 20
8 8 8 8 9 10 10 8 7 6 6 5 6 7 7 8 8 7 6 5 4 4 5 4 3 3 4 4 5 5 5 5 6 6 5 5 7 7 9 8 6 8 12 14 16 19 20 22 23 26 27 25 19 21 28 18 20 23 22 21 20 20 20
8 8 7 8 9 9 9 8 8 7 6 5 4 5 6 6 5 5 5 5 5 5 6 6 5 4 4 4 4 6 6 5 5 5 6 7 6 6 5 6 9 9 9 8 17 17 20 24 26 25 23 21 18 15 12 20 24 23 22 21 21 20 21
Wind_Direction
200 201 204 206 205 206 207 208 204 202 204 202 201 201 200 199 199 195 198 196 200 201 198 196 197 196 198 200 201 201 201 199 197 199 198 202 200 194 195 197 197 200 199 200 202 199 198 183 195 200 200 200 194 193 191 191 194 184 184 182 182 187 191
197 203 205 204 206 209 210 208 204 203 204 204 202 199 198 200 199 199 200 197 199 200 197 197 198 201 200 201 200 201 200 201 199 199 198 199 198 199 197 197 198 202 199 201 198 192 176 188 191 197 200 199 199 193 192 190 185 182 181 179 185 190 184
202 205 204 202 207 207 208 205 204 205 204 203 201 198 198 199 198 200 199 198 200 202 200 199 200 201 202 202 202 203 202 200 199 199 198 199 199 198 196 198 201 203 202 196 190 185 179 177 190 193 196 197 199 195 193 189 188 184 184 181 187 189 188
205 204 204 204 206 205 204 202 202 203 204 202 200 198 200 201 198 199 198 198 199 200 200 201 200 202 201 201 203 204 203 203 201 200 202 200 199 196 193 199 201 202 198 198 193 183 180 177 180 190 193 195 195 196 195 192 187 184 183 180 192 191 193
212 213 211 208 208 206 205 203 205 204 205 204 202 200 199 200 196 195 197 201 200 201 203 201 199 201 201 200 202 202 201 200 201 202 203 201 198 193 197 200 200 199 201 193 182 180 177 179 182 185 193 190 195 196 195 193 193 186 182 183 191 186 195
212 212 208 206 205 205 205 204 204 202 203 202 201 200 201 198 194 196 198 198 202 206 206 204 203 202 204 203 202 202 200 202 202 201 200 198 195 198 201 202 199 199 195 191 184 187 182 183 183 183 189 194 197 197 198 191 196 187 184 182 195 189 192
215 213 209 207 205 205 205 205 205 205 205 204 201 200 197 192 193 198 196 197 199 200 201 203 204 202 205 200 203 200 199 199 197 200 199 199 198 200 203 202 201 199 196 183 189 182 183 187 188 186 187 187 193 197 194 197 196 193 186 186 194 201 202
219 216 211 207 207 205 203 203 204 205 205 203 198 198 194 194 197 197 195 199 199 200 202 204 203 203 202 199 200 201 199 198 197 198 197 199 198 201 202 201 200 194 185 191 190 184 186 190 187 183 184 186 193 197 198 197 198 190 186 189 199 203 198
221 217 214 211 208 205 201 201 202 201 199 197 196 196 193 192 194 195 197 198 197 198 205 203 203 200 197 199 200 202 200 196 196 194 197 199 200 202 200 201 198 190 192 190 188 189 191 191 189 184 185 191 195 197 200 197 195 193 192 199 202 203 202
227 228 233 227 213 207 203 203 203 200 200 199 199 196 194 194 195 196 197 197 196 202 205 202 202 197 197 200 203 201 198 199 196 196 197 200 201 202 201 200 197 191 195 191 187 189 193 192 190 186 187 192 196 199 200 197 195 195 199 202 202 206 208
228 225 227 214 201 203 199 198 198 200 200 197 196 194 194 194 195 195 197 195 198 205 204 201 198 196 198 199 200 199 199 200 196 197 199 201 199 199 196 199 197 193 194 189 193 191 190 194 190 190 191 196 198 200 200 197 193 197 201 204 204 206 207
228 219 216 207 202 190 195 200 201 199 199 198 196 194 193 195 196 197 196 197 199 202 196 198 196 197 196 198 199 200 201 201 200 200 198 198 198 197 195 197 199 194 190 191 194 192 194 194 193 194 197 200 201 200 200 195 194 199 202 200 201 206 207
210 210 211 206 198 197 198 195 201 202 199 198 196 194 194 195 196 196 196 199 199 199 196 196 194 196 196 197 199 200 202 200 202 198 197 197 197 194 194 197 196 190 189 187 191 191 193 197 198 202 202 204 200 201 198 195 197 201 202 201 201 204 205
281 260 254 235 209 196 197 201 201 201 200 199 198 196 196 196 196 195 194 197 196 195 195 194 194 195 198 197 201 203 204 203 199 196 196 195 194 193 194 196 196 194 189 186 193 197 196 195 201 204 205 204 202 201 195 195 199 203 203 201 201 200 205
225 224 223 213 211 202 201 199 200 202 199 199 197 195 196 195 196 196 198 199 195 194 196 193 191 194 196 197 201 204 204 200 196 196 195 194 193 194 194 196 196 191 188 190 194 197 201 202 200 205 208 206 203 199 195 196 201 202 200 200 201 201 203
251 246 242 230 224 212 206 205 202 201 198 196 193 195 195 194 194 194 194 195 193 195 198 187 194 195 196 200 204 204 200 196 194 192 192 193 194 195 194 194 192 190 192 194 194 196 198 202 203 205 206 203 202 199 198 201 205 204 198 196 197 197 201
251 235 224 222 224 221 216 215 209 202 197 196 195 195 194 194 195 195 196 195 192 195 193 188 193 194 197 203 204 200 195 194 195 191 193 195 193 193 193 192 191 193 195 195 196 198 198 199 203 207 204 203 200 199 202 204 208 201 194 197 196 193 197
243 240 233 223 220 217 217 217 212 202 201 200 198 196 194 195 194 191 197 194 195 196 187 190 194 196 201 205 200 195 194 195 191 193 196 192 194 191 190 191 192 196 196 197 199 201 197 200 206 205 203 204 204 203 205 207 209 196 193 194 195 194 197
250 251 246 236 227 222 219 216 212 208 208 205 200 198 199 193 187 192 195 192 198 186 182 191 195 198 202 201 195 196 195 191 191 195 195 195 191 188 188 192 196 198 198 201 201 199 200 204 202 203 202 203 205 208 206 211 206 195 192 192 192 195 197
268 270 276 260 233 229 231 226 222 216 209 204 203 202 200 192 192 197 194 193 181 178 189 191 197 198 201 196 195 196 192 190 192 194 195 190 187 188 191 193 199 200 201 202 201 202 203 203 203 202 201 204 206 206 208 213 203 193 190 190 191 195 197
279 281 275 276 264 238 226 224 226 221 214 210 207 204 192 197 203 195 183 178 182 191 190 193 195 198 197 196 197 192 191 192 193 195 191 189 188 189 194 197 200 202 202 203 203 202 203 203 203 203 203 204 203 204 210 217 197 189 189 190 191 195 195
308 312 301 294 283 263 235 216 210 209 214 217 211 198 192 198 190 182 188 184 189 191 194 195 196 199 195 197 194 194 193 192 192 191 189 189 189 192 197 199 201 203 201 204 207 207 205 205 205 205 203 201 201 205 214 215 191 187 188 190 192 191 193
300 303 303 296 281 272 256 223 202 211 193 173 175 185 203 197 183 190 182 183 191 188 191 190 196 199 197 199 196 195 192 191 189 188 188 188 191 197 200 202 203 204 201 205 206 203 203 205 203 203 201 200 203 208 215 214 190 186 188 190 191 181 195
299 294 298 300 302 306 314 296 256 197 178 174 179 188 176 166 176 177 183 188 181 182 188 193 201 201 198 199 196 195 190 185 184 188 189 190 196 198 201 202 203 204 198 203 201 204 206 201 204 201 201 201 206 208 210 213 190 187 188 189 185 181 191
307 305 299 308 325 332 322 309 271 233 182 176 189 184 169 169 170 174 185 185 186 189 193 200 201 196 198 200 195 188 186 188 190 192 193 196 200 198 199 200 202 202 197 205 203 206 199 200 203 202 202 206 209 206 208 211 192 186 187 188 184 187 194
325 331 338 336 355 343 323 330 70 114 143 173 181 159 164 165 170 183 187 190 191 195 203 206 203 198 199 193 182 183 186 189 193 195 195 200 199 199 203 200 198 200 202 205 204 202 197 197 201 202 206 204 208 206 207 206 194 183 188 187 186 188 187
299 323 349 3 2 355 19 35 50 57 51 9 186 161 162 161 173 186 187 183 190 206 210 210 203 196 191 184 186 189 192 192 194 196 201 201 197 195 194 194 199 199 197 202 201 202 201 198 201 203 206 202 204 207 203 204 196 184 186 187 185 188 184
66 89 38 24 24 21 31 43 46 43 32 22 13 3 168 162 171 180 171 183 204 213 213 194 177 189 190 188 192 195 196 198 202 202 204 202 195 191 197 198 194 194 197 197 195 199 203 200 199 202 203 202 201 205 204 199 195 166 186 185 186 184 188
33 36 26 17 22 25 31 37 39 40 37 24 24 21 3 177 172 176 181 196 217 213 176 171 178 177 179 184 191 195 199 202 203 204 203 199 198 200 202 193 191 193 192 192 196 200 203 202 200 200 202 200 201 201 201 194 191 175 180 187 182 185 189
41 39 39 38 31 23 36 49 39 36 32 31 33 29 31 29 309 200 197 219 274 138 172 181 177 171 179 193 198 200 202 203 205 205 203 200 196 200 201 198 199 194 189 190 190 193 198 202 202 201 199 195 195 194 193 185 175 180 179 179 184 184 188
44 39 40 40 36 31 35 44 49 49 39 33 30 30 31 32 42 32 357 341 342 258 199 182 172 173 187 195 199 202 207 204 205 205 204 203 197 200 202 204 200 201 201 192 192 192 194 196 194 197 195 191 189 185 171 169 177 169 186 180 183 185 183
51 57 61 58 45 40 43 46 52 51 50 38 32 32 34 39 42 39 348 325 334 344 304 213 183 189 197 198 198 202 197 199 206 206 207 205 203 206 205 202 197 200 203 205 208 201 196 191 187 189 188 192 191 176 169 170 169 172 169 181 179 178 176
38 34 33 36 35 43 49 53 49 44 43 40 35 36 36 37 36 37 6 351 347 348 349 346 233 210 201 203 206 205 200 202 205 206 208 207 209 210 209 205 202 201 198 197 199 206 211 201 190 188 189 190 185 178 168 169 160 156 160 161 155 152 159
41 43 40 38 30 29 32 37 42 45 46 42 31 31 34 37 35 21 13 11 11 7 27 50 177 227 239 230 220 207 203 207 209 206 206 209 208 209 209 207 203 202 201 199 198 194 196 197 201 201 194 187 176 172 156 133 127 150 154 157 155 151 153
49 52 47 43 37 38 41 34 36 33 32 30 26 30 33 30 26 20 21 12 5 358 34 36 21 8 297 262 243 244 239 225 215 209 210 211 213 213 208 201 201 205 210 208 198 194 192 195 194 189 186 173 163 144 136 146 171 184 175 164 163 157 155
48 48 45 46 53 46 47 45 44 41 32 23 19 25 27 29 22 19 18 14 15 22 37 27 33 35 37 38 32 15 352 331 313 300 271 240 225 220 222 228 230 216 205 204 205 202 197 184 180 164 139 127 132 153 154 177 176 145 157 166 161 158 150
55 51 45 38 45 44 46 39 35 41 38 26 25 33 33 31 25 21 13 17 23 39 44 32 45 45 33 30 31 27 27 22 16 9 355 333 314 290 258 245 279 318 288 241 200 187 180 176 168 162 160 156 161 176 183 169 152 153 152 154 153 145 136
62 58 56 50 49 49 45 42 38 30 21 358 16 45 40 37 23 7 2 6 10 32 45 41 48 45 40 41 43 42 47 45 42 31 23 6 356 340 318 285 262 270 328 285 186 180 173 168 163 162 154 148 161 168 150 145 146 142 141 140 137 135 135